When you browse on this site, cookies collect data to enhance your experience and personalize the content and advertising you see.
Visit our Privacy Policy to learn more. By continuing to use the site, you agree to this use of cookies and data.

Stündliche Wetter Kchulna

Heute, 18 September, Freitag

Zeit Temperatur Niederschläge Wind Luftdruck Luftfeuchtigkeit
00:00 +29°C° 0 mm 1 m/S 752 mmHg 91%
01:00 +29°C° 0.2 mm 1 m/S 752 mmHg 91%
02:00 +29°C° 0.2 mm 1 m/S 751 mmHg 91%
03:00 +29°C° 0.2 mm 1 m/S 751 mmHg 91%
04:00 +29°C° 0.4 mm 1 m/S 751 mmHg 91%
05:00 +29°C° 0.4 mm 1 m/S 751 mmHg 91%
06:00 +27°C° 0 mm 0 m/S 751 mmHg 91%
07:00 +30°C° 0 mm 1 m/S 752 mmHg 85%
08:00 +31°C° 0 mm 1 m/S 752 mmHg 80%
09:00 +32°C° 0 mm 1 m/S 752 mmHg 74%
10:00 +33°C° 0 mm 1 m/S 752 mmHg 69%
11:00 +34°C° 0 mm 1 m/S 751 mmHg 64%
12:00 +35°C° 0 mm 1 m/S 751 mmHg 60%
13:00 +35°C° 0.1 mm 1 m/S 750 mmHg 60%
14:00 +35°C° 0.1 mm 1 m/S 749 mmHg 60%
15:00 +35°C° 0.1 mm 1 m/S 748 mmHg 60%
16:00 +34°C° 0.2 mm 1 m/S 748 mmHg 65%
17:00 +34°C° 0.2 mm 2 m/S 748 mmHg 70%
18:00 +32°C° 0.2 mm 2 m/S 749 mmHg 74%
19:00 +32°C° 0 mm 2 m/S 749 mmHg 78%
20:00 +31°C° 0 mm 2 m/S 750 mmHg 81%
21:00 +30°C° 0 mm 2 m/S 751 mmHg 84%
22:00 +30°C° 0 mm 2 m/S 750 mmHg 85%
23:00 +30°C° 0 mm 2 m/S 750 mmHg 85%

Morgen, 19 September, Samstag

Zeit Temperatur Niederschläge Wind Luftdruck Luftfeuchtigkeit
00:00 +29°C° 0 mm 1 m/S 750 mmHg 86%
01:00 +29°C° 0.4 mm 1 m/S 750 mmHg 87%
02:00 +29°C° 0.4 mm 1 m/S 749 mmHg 88%
03:00 +29°C° 0.4 mm 1 m/S 749 mmHg 89%
04:00 +29°C° 0.2 mm 1 m/S 749 mmHg 89%
05:00 +29°C° 0.2 mm 1 m/S 749 mmHg 90%
06:00 +29°C° 0.2 mm 1 m/S 750 mmHg 90%
07:00 +30°C° 0 mm 1 m/S 750 mmHg 84%
08:00 +32°C° 0 mm 1 m/S 750 mmHg 79%
09:00 +33°C° 0 mm 1 m/S 751 mmHg 74%
10:00 +34°C° 0 mm 1 m/S 751 mmHg 69%
11:00 +35°C° 0 mm 1 m/S 750 mmHg 64%
12:00 +36°C° 0 mm 1 m/S 750 mmHg 60%
13:00 +36°C° 0 mm 1 m/S 749 mmHg 59%
14:00 +36°C° 0 mm 1 m/S 748 mmHg 59%
15:00 +34°C° 0 mm 0 m/S 747 mmHg 58%
16:00 +35°C° 0 mm 1 m/S 747 mmHg 62%
17:00 +34°C° 0 mm 1 m/S 747 mmHg 66%
18:00 +33°C° 0 mm 1 m/S 747 mmHg 70%
19:00 +33°C° 0.1 mm 1 m/S 747 mmHg 72%
20:00 +32°C° 0.1 mm 1 m/S 748 mmHg 74%
21:00 +32°C° 0.1 mm 1 m/S 748 mmHg 76%
22:00 +32°C° 0.1 mm 1 m/S 748 mmHg 78%
23:00 +31°C° 0.1 mm 1 m/S 748 mmHg 79%

übermorgen, 20 September, Sonntag

Zeit Temperatur Niederschläge Wind Luftdruck Luftfeuchtigkeit
00:00 +31°C° 0.1 mm 1 m/S 748 mmHg 80%
01:00 +31°C° 0 mm 1 m/S 748 mmHg 81%
02:00 +31°C° 0 mm 1 m/S 748 mmHg 83%
03:00 +30°C° 0 mm 2 m/S 747 mmHg 84%
04:00 +30°C° 0.1 mm 2 m/S 747 mmHg 84%
05:00 +30°C° 0.1 mm 1 m/S 748 mmHg 85%
06:00 +30°C° 0.1 mm 1 m/S 748 mmHg 85%
07:00 +31°C° 0 mm 2 m/S 748 mmHg 80%
08:00 +34°C° 0 mm 2 m/S 749 mmHg 75%
09:00 +35°C° 0 mm 2 m/S 749 mmHg 70%
10:00 +37°C° 0.2 mm 2 m/S 748 mmHg 65%
11:00 +38°C° 0.2 mm 2 m/S 748 mmHg 60%
12:00 +39°C° 0.2 mm 2 m/S 748 mmHg 55%
13:00 +38°C° 1.7 mm 3 m/S 747 mmHg 59%
14:00 +37°C° 1.7 mm 3 m/S 746 mmHg 63%
15:00 +36°C° 1.7 mm 3 m/S 746 mmHg 68%
16:00 +35°C° 0.5 mm 3 m/S 746 mmHg 72%
17:00 +34°C° 0.5 mm 3 m/S 746 mmHg 76%
18:00 +31°C° 0.5 mm 2 m/S 746 mmHg 80%
19:00 +31°C° 0 mm 2 m/S 747 mmHg 82%
20:00 +31°C° 0 mm 3 m/S 747 mmHg 83%
21:00 +30°C° 0 mm 3 m/S 748 mmHg 85%
22:00 +30°C° 0 mm 2 m/S 748 mmHg 85%
23:00 +30°C° 0 mm 2 m/S 748 mmHg 86%

21 September, Montag

Zeit Temperatur Niederschläge Wind Luftdruck Luftfeuchtigkeit
00:00 +29°C° 0 mm 1 m/S 749 mmHg 87%
01:00 +29°C° 0.5 mm 2 m/S 748 mmHg 88%
02:00 +29°C° 0.5 mm 3 m/S 748 mmHg 88%
03:00 +29°C° 0.5 mm 4 m/S 748 mmHg 88%
04:00 +29°C° 0 mm 4 m/S 748 mmHg 88%
05:00 +29°C° 0 mm 4 m/S 748 mmHg 88%
06:00 +29°C° 0 mm 4 m/S 749 mmHg 88%
07:00 +30°C° 0.1 mm 5 m/S 749 mmHg 84%
08:00 +32°C° 0.1 mm 6 m/S 749 mmHg 80%
09:00 +33°C° 0.1 mm 8 m/S 750 mmHg 76%
10:00 +34°C° 1 mm 7 m/S 749 mmHg 75%
11:00 +34°C° 1 mm 7 m/S 749 mmHg 75%
12:00 +34°C° 1 mm 7 m/S 749 mmHg 74%
13:00 +34°C° 1.3 mm 7 m/S 748 mmHg 76%
14:00 +33°C° 1.3 mm 6 m/S 748 mmHg 78%
15:00 +32°C° 1.3 mm 5 m/S 748 mmHg 80%
16:00 +32°C° 0.4 mm 5 m/S 748 mmHg 83%
17:00 +30°C° 0.4 mm 4 m/S 748 mmHg 85%
18:00 +30°C° 0.4 mm 4 m/S 748 mmHg 87%
19:00 +30°C° 0 mm 4 m/S 749 mmHg 88%
20:00 +29°C° 0 mm 4 m/S 749 mmHg 89%
21:00 +29°C° 0 mm 4 m/S 750 mmHg 89%
22:00 +29°C° 0.1 mm 4 m/S 750 mmHg 90%
23:00 +29°C° 0.1 mm 4 m/S 750 mmHg 90%

22 September, Dienstag

Zeit Temperatur Niederschläge Wind Luftdruck Luftfeuchtigkeit
00:00 +29°C° 0.1 mm 4 m/S 750 mmHg 90%
01:00 +29°C° 0.2 mm 3 m/S 750 mmHg 90%
02:00 +29°C° 0.2 mm 3 m/S 750 mmHg 90%
03:00 +29°C° 0.2 mm 3 m/S 749 mmHg 90%
04:00 +29°C° 1 mm 3 m/S 750 mmHg 91%
05:00 +29°C° 1 mm 3 m/S 750 mmHg 91%
06:00 +29°C° 1 mm 3 m/S 750 mmHg 91%
07:00 +30°C° 0.7 mm 4 m/S 751 mmHg 87%
08:00 +32°C° 0.7 mm 5 m/S 751 mmHg 83%
09:00 +33°C° 0.7 mm 6 m/S 752 mmHg 79%
10:00 +33°C° 1.6 mm 7 m/S 751 mmHg 78%
11:00 +34°C° 1.6 mm 7 m/S 751 mmHg 76%
12:00 +34°C° 1.6 mm 7 m/S 750 mmHg 75%
13:00 +34°C° 0.8 mm 7 m/S 750 mmHg 76%
14:00 +34°C° 0.8 mm 6 m/S 750 mmHg 77%
15:00 +34°C° 0.8 mm 6 m/S 749 mmHg 78%
16:00 +33°C° 0.1 mm 5 m/S 749 mmHg 80%
17:00 +32°C° 0.1 mm 5 m/S 749 mmHg 83%
18:00 +30°C° 0.1 mm 4 m/S 750 mmHg 86%
19:00 +30°C° 0.1 mm 4 m/S 750 mmHg 87%
20:00 +30°C° 0.1 mm 4 m/S 751 mmHg 88%
21:00 +30°C° 0.1 mm 4 m/S 751 mmHg 89%
22:00 +30°C° 0.4 mm 4 m/S 751 mmHg 89%
23:00 +29°C° 0.4 mm 4 m/S 751 mmHg 89%

23 September, Mittwoch

Zeit Temperatur Niederschläge Wind Luftdruck Luftfeuchtigkeit
00:00 +29°C° 0.4 mm 4 m/S 751 mmHg 89%
01:00 +29°C° 1.5 mm 4 m/S 751 mmHg 89%
02:00 +29°C° 1.5 mm 4 m/S 750 mmHg 89%
03:00 +29°C° 1.5 mm 4 m/S 750 mmHg 89%
04:00 +29°C° 0.5 mm 3 m/S 750 mmHg 90%
05:00 +29°C° 0.5 mm 3 m/S 750 mmHg 91%
06:00 +29°C° 0.5 mm 3 m/S 750 mmHg 92%
07:00 +30°C° 0.8 mm 4 m/S 751 mmHg 87%
08:00 +32°C° 0.8 mm 4 m/S 751 mmHg 83%
09:00 +33°C° 0.8 mm 5 m/S 752 mmHg 79%
10:00 +33°C° 2.1 mm 5 m/S 752 mmHg 78%
11:00 +33°C° 2.1 mm 5 m/S 751 mmHg 78%
12:00 +34°C° 2.1 mm 6 m/S 751 mmHg 77%
13:00 +34°C° 0.9 mm 5 m/S 750 mmHg 77%
14:00 +34°C° 0.9 mm 5 m/S 750 mmHg 77%
15:00 +34°C° 0.9 mm 5 m/S 749 mmHg 77%
16:00 +33°C° 0.2 mm 5 m/S 750 mmHg 81%
17:00 +32°C° 0.2 mm 4 m/S 750 mmHg 85%
18:00 +30°C° 0.2 mm 3 m/S 750 mmHg 88%
19:00 +30°C° 0.8 mm 3 m/S 750 mmHg 89%
20:00 +29°C° 0.8 mm 3 m/S 751 mmHg 89%
21:00 +29°C° 0.8 mm 3 m/S 751 mmHg 90%
22:00 +29°C° 1.6 mm 3 m/S 751 mmHg 90%
23:00 +29°C° 1.6 mm 3 m/S 751 mmHg 90%
Mehr zeigen